Weather History for Punta Gorda, FL

Change the Weather History Date:

Tuesday, December 4, 2012

  Actual Average Record
Temperature  
Mean Temperature 20 °C -  
Max Temperature 27 °C 24 °C 28 °C (2013)
Min Temperature 13 °C 11 °C 3 °C (2010)
Cooling Degree Days 2    
Growing Degree Days 18 (Base 50)    
Moisture  
Dew Point 13 °C    
Average Humidity 73    
Maximum Humidity 97    
Minimum Humidity 39    
Precipitation  
Precipitation 0.00 mm - - ()
Sea Level Pressure  
Sea Level Pressure 1024 hPa    
Wind  
Wind Speed 8 km/h (ENE)    
Max Wind Speed 26 km/h    
Max Gust Speed 32 km/h    
Visibility 16 kilometers    
Events      
Averages and records for this station are not official NWS values.
T = Trace of Precipitation, MM = Missing Value Source: NWS Daily Summary

Daily Weather History Graph

Daily Weather History Graph

Search for Another Location

Airport:

Trip Planner

Search our weather history database for the weather conditions in past years. The results will help you decide how hot, cold, wet, or windy it might be!

Date:

Astronomy

Dec. 04, 2012 Rise Set
Actual Time 7:02 AM EST 5:34 PM EST
Civil Twilight 6:37 AM EST 5:59 PM EST
Nautical Twilight 6:08 AM EST 6:28 PM EST
Astronomical Twilight 5:40 AM EST 6:56 PM EST
Moon 10:59 PM EST (12/4) 11:13 AM EST (12/4)
Length of Visible Light 11h 22m
Length of Day
10h 32m
Waning Gibbous, 69% of the Moon is Illuminated
Dec 4
Waning Gibbous
Dec 6
Last Quarter
Dec 13
New
Dec 20
First Quarter
Dec 28
Full

Hourly Weather History & Observations

Time (EST) Temp. Heat Index Dew Point Humidity Pressure Visibility Wind Dir Wind Speed Gust Speed Precip Events Conditions
12:53 AM 13.3 °C - 11.7 °C 90% 1024.2 hPa 16.1 km Calm Calm - N/A   Clear
1:53 AM 14.4 °C - 12.8 °C 90% 1024.1 hPa 16.1 km NNE 9.3 km/h / 2.6 m/s - N/A   Mostly Cloudy
2:53 AM 13.9 °C - 12.8 °C 93% 1023.8 hPa 16.1 km ENE 9.3 km/h / 2.6 m/s - N/A   Partly Cloudy
3:53 AM 16.1 °C - 14.4 °C 90% 1023.4 hPa 16.1 km NE 5.6 km/h / 1.5 m/s - N/A   Overcast
4:53 AM 15.6 °C - 14.4 °C 93% 1023.7 hPa 16.1 km ENE 9.3 km/h / 2.6 m/s - N/A   Mostly Cloudy
5:53 AM 14.4 °C - 13.9 °C 97% 1023.9 hPa 16.1 km NNE 11.1 km/h / 3.1 m/s - N/A   Clear
6:53 AM 13.3 °C - 12.8 °C 97% 1024.3 hPa 16.1 km ENE 9.3 km/h / 2.6 m/s - N/A   Clear
7:53 AM 15.6 °C - 13.9 °C 90% 1024.8 hPa 16.1 km NE 7.4 km/h / 2.1 m/s - N/A   Clear
8:53 AM 18.9 °C - 14.4 °C 75% 1025.1 hPa 16.1 km ENE 9.3 km/h / 2.6 m/s - N/A   Clear
9:53 AM 22.8 °C - 13.3 °C 55% 1025.8 hPa 16.1 km East 14.8 km/h / 4.1 m/s - N/A   Clear
10:53 AM 25.6 °C - 11.7 °C 42% 1025.3 hPa 16.1 km Variable 7.4 km/h / 2.1 m/s - N/A   Clear
11:53 AM 26.1 °C - 11.1 °C 39% 1024.7 hPa 16.1 km ESE 9.3 km/h / 2.6 m/s - N/A   Scattered Clouds
12:53 PM 26.7 °C 26.7 °C 12.2 °C 40% 1023.4 hPa 16.1 km East 14.8 km/h / 4.1 m/s - N/A   Scattered Clouds
1:53 PM 25.6 °C - 14.4 °C 50% 1022.5 hPa 16.1 km East 14.8 km/h / 4.1 m/s - N/A   Overcast
2:53 PM 26.7 °C 27.0 °C 14.4 °C 47% 1022.1 hPa 16.1 km NE 25.9 km/h / 7.2 m/s 31.5 km/h / 8.7 m/s N/A   Scattered Clouds
3:53 PM 24.4 °C - 14.4 °C 54% 1022.3 hPa 16.1 km ENE 16.7 km/h / 4.6 m/s - N/A   Mostly Cloudy
4:53 PM 23.9 °C - 15.0 °C 57% 1022.7 hPa 16.1 km ENE 11.1 km/h / 3.1 m/s - N/A   Mostly Cloudy
5:53 PM 21.1 °C - 15.0 °C 68% 1022.7 hPa 16.1 km ENE 13.0 km/h / 3.6 m/s - N/A   Mostly Cloudy
6:53 PM 20.0 °C - 14.4 °C 70% 1023.3 hPa 16.1 km ENE 11.1 km/h / 3.1 m/s - N/A   Mostly Cloudy
7:53 PM 17.2 °C - 13.3 °C 78% 1023.3 hPa 16.1 km ENE 5.6 km/h / 1.5 m/s - N/A   Partly Cloudy
8:53 PM 15.6 °C - 12.8 °C 83% 1023.4 hPa 16.1 km East 7.4 km/h / 2.1 m/s - N/A   Clear
9:53 PM 14.4 °C - 12.2 °C 87% 1023.2 hPa 16.1 km ENE 7.4 km/h / 2.1 m/s - N/A   Clear
10:53 PM 15.0 °C - 12.2 °C 83% 1023.0 hPa 16.1 km ENE 9.3 km/h / 2.6 m/s - N/A   Clear
11:53 PM 15.6 °C - 12.2 °C 80% 1022.8 hPa 16.1 km Calm Calm - N/A   Clear